Weather History for KMWK - March, 2013

Change the Weather History Date:

Friday, March 8, 2013

  Actual Average (KINT) Record (KINT)
Temperature  
Mean Temperature 44 °F -  
Max Temperature 55 °F 55 °F 84 °F (1974)
Min Temperature 33 °F 36 °F 17 °F (1966)
Degree Days  
Heating Degree Days 21    
Moisture  
Dew Point 22 °F    
Average Humidity 46    
Maximum Humidity 65    
Minimum Humidity 23    
Precipitation  
Precipitation 0.00 in - - ()
Sea Level Pressure  
Sea Level Pressure 30.24 in    
Wind  
Wind Speed 8 mph (NNW)    
Max Wind Speed 14 mph    
Max Gust Speed 22 mph    
Visibility 10 miles    
Events      
Averages and records for this station are not official NWS values.
T = Trace of Precipitation, MM = Missing Value Source: NWS Daily Summary

Daily Weather History Graph

Daily Weather History Graph

Search for Another Location

Airport or City:

Trip Planner

Search our weather history database for the weather conditions in past years. The results will help you decide how hot, cold, wet, or windy it might be!

Date:

Astronomy

Mar. 08, 2013 Rise Set
Actual Time 6:42 AM EST 6:23 PM EST
Civil Twilight 6:17 AM EST 6:49 PM EST
Nautical Twilight 5:47 AM EST 7:19 PM EST
Astronomical Twilight 5:17 AM EST 7:49 PM EST
Moon 4:21 AM EST (3/8) 3:21 PM EST (3/8)
Length of Visible Light 12h 32m
Length of Day
11h 40m
Waning Crescent, 12% of the Moon is Illuminated
Mar 8
Waning Crescent
Mar 11
New
Mar 19
First Quarter
Mar 27
Full
Apr 3
Last Quarter

Hourly Weather History & Observations

Time (EST) Temp. Windchill Dew Point Humidity Pressure Visibility Wind Dir Wind Speed Gust Speed Precip Events Conditions
12:15 AM 35.8 °F 28.8 °F 23.4 °F 61% 30.23 in 10.0 mi NNW 9.2 mph - N/A   Scattered Clouds
12:35 AM 35.8 °F 30.1 °F 23.4 °F 61% 30.23 in 10.0 mi NNW 6.9 mph 18.4 mph N/A   Clear
12:55 AM 35.2 °F 28.8 °F 23.0 °F 61% 30.22 in 10.0 mi NNW 8.1 mph - N/A   Scattered Clouds
1:15 AM 35.2 °F 31.2 °F 23.2 °F 62% 30.22 in 10.0 mi NNW 4.6 mph - N/A   Scattered Clouds
1:35 AM 35.6 °F 29.9 °F 23.7 °F 62% 30.22 in 10.0 mi NNW 6.9 mph 18.4 mph N/A   Clear
1:55 AM 35.6 °F 30.7 °F 23.5 °F 62% 30.21 in 10.0 mi NW 5.8 mph - N/A   Clear
2:15 AM 35.1 °F 28.6 °F 23.4 °F 62% 30.21 in 10.0 mi NNW 8.1 mph - N/A   Clear
2:35 AM 35.1 °F 27.9 °F 23.0 °F 61% 30.21 in 10.0 mi NW 9.2 mph - N/A   Scattered Clouds
2:55 AM 35.1 °F 28.6 °F 23.2 °F 62% 30.21 in 10.0 mi NW 8.1 mph - N/A   Mostly Cloudy
3:15 AM 35.1 °F 32.2 °F 23.0 °F 61% 30.21 in 10.0 mi NW 3.5 mph - N/A   Scattered Clouds
3:35 AM 34.5 °F 27.9 °F 23.0 °F 63% 30.20 in 10.0 mi NW 8.1 mph - N/A   Clear
3:55 AM 34.3 °F 28.4 °F 22.8 °F 63% 30.19 in 10.0 mi NNW 6.9 mph - N/A   Clear
4:15 AM 34.7 °F 28.8 °F 23.0 °F 62% 30.20 in 10.0 mi NW 6.9 mph - N/A   Clear
4:35 AM 34.3 °F 30.2 °F 23.0 °F 63% 30.21 in 10.0 mi NW 4.6 mph - N/A   Clear
4:55 AM 33.6 °F 30.6 °F 22.1 °F 63% 30.21 in 10.0 mi NW 3.5 mph - N/A   Mostly Cloudy
5:15 AM 33.8 °F 30.8 °F 22.8 °F 64% 30.22 in 10.0 mi NW 3.5 mph - N/A   Mostly Cloudy
5:35 AM 34.3 °F 28.4 °F 23.7 °F 65% 30.23 in 10.0 mi NW 6.9 mph - N/A   Mostly Cloudy
5:55 AM 35.6 °F 30.7 °F 23.9 °F 62% 30.23 in 10.0 mi NW 5.8 mph - N/A   Overcast
6:15 AM 35.8 °F 31.9 °F 23.9 °F 62% 30.23 in 10.0 mi NNW 4.6 mph - N/A   Overcast
6:35 AM 35.8 °F 30.9 °F 23.9 °F 62% 30.24 in 10.0 mi NW 5.8 mph - N/A   Overcast
6:55 AM 36.5 °F 29.2 °F 23.5 °F 59% 30.24 in 10.0 mi WNW 10.4 mph - N/A   Overcast
7:15 AM 36.5 °F 29.7 °F 23.4 °F 59% 30.24 in 10.0 mi NW 9.2 mph - N/A   Mostly Cloudy
7:35 AM 37.0 °F 31.6 °F 23.9 °F 59% 30.25 in 10.0 mi NW 6.9 mph - N/A   Overcast
7:55 AM 37.6 °F 34.0 °F 23.9 °F 58% 30.26 in 10.0 mi NW 4.6 mph - N/A   Overcast
8:15 AM 38.3 °F 34.8 °F 23.9 °F 56% 30.27 in 10.0 mi NNW 4.6 mph - N/A   Overcast
8:35 AM 38.8 °F 33.2 °F 23.9 °F 55% 30.27 in 10.0 mi North 8.1 mph - N/A   Mostly Cloudy
8:55 AM 39.2 °F 33.6 °F 23.9 °F 54% 30.28 in 10.0 mi North 8.1 mph 17.3 mph N/A   Scattered Clouds
9:15 AM 42.8 °F 36.2 °F 24.6 °F 49% 30.29 in 10.0 mi NNW 12.7 mph 18.4 mph N/A   Scattered Clouds
9:35 AM 41.4 °F 34.0 °F 22.5 °F 47% 30.28 in 10.0 mi NW 13.8 mph 18.4 mph N/A   Scattered Clouds
9:55 AM 43.5 °F 38.3 °F 23.9 °F 46% 30.28 in 10.0 mi NW 9.2 mph 17.3 mph N/A   Scattered Clouds
10:15 AM 45.5 °F 41.3 °F 23.5 °F 42% 30.27 in 10.0 mi NNE 8.1 mph 18.4 mph N/A   Clear
10:35 AM 45.7 °F 40.2 °F 20.8 °F 37% 30.27 in 10.0 mi North 11.5 mph 21.9 mph N/A   Clear
10:55 AM 46.8 °F - 20.8 °F 36% 30.27 in 10.0 mi NNW 10.4 mph 17.3 mph N/A   Clear
11:15 AM 47.7 °F - 19.9 °F 33% 30.27 in 10.0 mi North 8.1 mph 19.6 mph N/A   Clear
11:35 AM 49.1 °F - 20.1 °F 32% 30.27 in 10.0 mi NNW 11.5 mph 18.4 mph N/A   Clear
11:55 AM 49.6 °F - 20.1 °F 31% 30.27 in 10.0 mi NNW 10.4 mph 17.3 mph N/A   Clear
12:15 PM 50.9 °F - 19.0 °F 28% 30.26 in 10.0 mi NW 11.5 mph 17.3 mph N/A   Clear
12:35 PM 50.9 °F - 20.1 °F 30% 30.24 in 10.0 mi WNW 10.4 mph 18.4 mph N/A   Clear
12:55 PM 51.3 °F - 19.6 °F 29% 30.24 in 10.0 mi NW 11.5 mph 17.3 mph N/A   Clear
1:15 PM 52.7 °F - 19.8 °F 27% 30.22 in 10.0 mi NW 12.7 mph 16.1 mph N/A   Clear
1:35 PM 53.4 °F - 19.8 °F 27% 30.21 in 10.0 mi WNW 9.2 mph 16.1 mph N/A   Clear
1:55 PM 53.6 °F - 19.6 °F 26% 30.20 in 10.0 mi North 8.1 mph 18.4 mph N/A   Clear
2:15 PM 54.0 °F - 18.0 °F 24% 30.20 in 10.0 mi NNW 9.2 mph 18.4 mph N/A   Clear
2:35 PM 54.7 °F - 18.0 °F 24% 30.20 in 10.0 mi NNW 10.4 mph 18.4 mph N/A   Clear
2:55 PM 54.7 °F - 18.0 °F 24% 30.19 in 10.0 mi NNW 9.2 mph 17.3 mph N/A   Clear
3:15 PM 54.9 °F - 18.3 °F 24% 30.20 in 10.0 mi NNW 5.8 mph - N/A   Clear
3:35 PM 55.4 °F - 17.6 °F 23% 30.20 in 10.0 mi NNW 12.7 mph - N/A   Clear
3:55 PM 54.1 °F - 17.4 °F 24% 30.20 in 10.0 mi North 9.2 mph 16.1 mph N/A   Clear
4:15 PM 54.7 °F - 18.1 °F 24% 30.21 in 10.0 mi NW 10.4 mph 18.4 mph N/A   Clear
4:35 PM 54.3 °F - 18.1 °F 24% 30.21 in 10.0 mi NW 12.7 mph 18.4 mph N/A   Clear
4:55 PM 54.5 °F - 19.6 °F 26% 30.22 in 10.0 mi North 6.9 mph - N/A   Clear
5:15 PM 52.3 °F - 19.6 °F 28% 30.22 in 10.0 mi NW 9.2 mph - N/A   Clear
5:35 PM 51.4 °F - 20.3 °F 29% 30.22 in 10.0 mi NNW 6.9 mph - N/A   Clear
5:55 PM 50.0 °F - 19.9 °F 31% 30.22 in 10.0 mi NW 11.5 mph - N/A   Clear
6:15 PM 48.0 °F - 19.9 °F 33% 30.22 in 10.0 mi Calm Calm - N/A   Clear
6:35 PM 45.7 °F - 20.1 °F 36% 30.23 in 10.0 mi Calm Calm - N/A   Clear
6:55 PM 44.6 °F 43.1 °F 21.2 °F 39% 30.24 in 10.0 mi NNW 3.5 mph - N/A   Clear
7:35 PM 43.5 °F - 23.0 °F 44% 30.24 in 10.0 mi Calm Calm - N/A   Clear
7:55 PM 43.2 °F 37.9 °F 23.5 °F 46% 30.24 in 10.0 mi NNW 9.2 mph - N/A   Clear
8:15 PM 43.2 °F 37.9 °F 24.1 °F 47% 30.24 in 10.0 mi NNW 9.2 mph 16.1 mph N/A   Clear
8:35 PM 42.8 °F 38.6 °F 23.9 °F 47% 30.25 in 10.0 mi NW 6.9 mph - N/A   Clear
8:55 PM 42.1 °F 38.4 °F 24.3 °F 49% 30.25 in 10.0 mi NW 5.8 mph - N/A   Clear
9:15 PM 41.5 °F 36.4 °F 24.8 °F 51% 30.25 in 10.0 mi NNW 8.1 mph - N/A   Clear
9:35 PM 40.5 °F 37.3 °F 23.7 °F 51% 30.28 in 10.0 mi East 4.6 mph - N/A   Clear
9:55 PM 40.1 °F - 23.7 °F 52% 30.28 in 10.0 mi Calm Calm - N/A   Clear
10:15 PM 38.8 °F 36.5 °F 22.6 °F 52% 30.29 in 10.0 mi North 3.5 mph - N/A   Clear
10:55 PM 40.6 °F 36.0 °F 24.6 °F 53% 30.29 in 10.0 mi NW 6.9 mph - N/A   Clear
11:15 PM 40.1 °F 36.1 °F 23.9 °F 52% 30.30 in 10.0 mi NNW 5.8 mph - N/A   Clear
11:35 PM 40.1 °F 36.1 °F 24.4 °F 54% 30.29 in 10.0 mi NNW 5.8 mph - N/A   Clear
11:55 PM 39.4 °F 36.1 °F 23.9 °F 54% 30.29 in 10.0 mi NNW 4.6 mph - N/A   Clear